contact:dominique.lefevre@mio.osupytheas.fr, maurice.libes@osupytheas.fr, didier.mallarino@osupytheas.fr
Project:EMSO http://www.emso-fr.org/EMSO-France
Depth: 2436.0 m
Title:EMSO Ligure Ouest : Data MII capteur CSTAR
DateTime,Latitude,Longitude,Instrument_Serial,Reference_Counts,Signal_Counts,Corrected_Signal_raw_counts,Calculated_Beam_c_inverse_meters,Internal_thermistor_counts
DateTime,Latitude,Longitude,Instrument_Serial,Reference_Counts,Signal_Counts,Corrected_Signal_raw_counts,Calculated_Beam_c_inverse_meters,Internal_thermistor_counts
2023-07-19T00:01:44,42.805,6.029,CST-1368DR,4246,4611,11523,01.216,552
2023-07-19T00:04:46,42.805,6.029,CST-1368DR,4246,4612,11525,01.215,552
2023-07-19T00:07:47,42.805,6.029,CST-1368DR,4246,4612,11525,01.215,552
2023-07-19T00:10:49,42.805,6.029,CST-1368DR,4246,4611,11523,01.216,552
2023-07-19T00:13:51,42.805,6.029,CST-1368DR,4246,4611,11523,01.216,552
2023-07-19T00:16:52,42.805,6.029,CST-1368DR,4246,4612,11525,01.215,552
2023-07-19T00:19:54,42.805,6.029,CST-1368DR,4246,4612,11525,01.215,552
2023-07-19T00:22:55,42.805,6.029,CST-1368DR,4246,4609,11519,01.217,552
2023-07-19T00:25:57,42.805,6.029,CST-1368DR,4246,4611,11523,01.216,552
2023-07-19T00:28:59,42.805,6.029,CST-1368DR,4246,4611,11524,01.215,552
2023-07-19T00:32:00,42.805,6.029,CST-1368DR,4246,4611,11523,01.216,552
2023-07-19T00:35:02,42.805,6.029,CST-1368DR,4246,4611,11522,01.216,552
2023-07-19T00:38:03,42.805,6.029,CST-1368DR,4246,4610,11520,01.217,552
2023-07-19T00:41:05,42.805,6.029,CST-1368DR,4246,4611,11523,01.216,552
2023-07-19T00:44:06,42.805,6.029,CST-1368DR,4246,4611,11523,01.216,552
2023-07-19T00:47:08,42.805,6.029,CST-1368DR,4246,4611,11524,01.215,552
2023-07-19T00:50:10,42.805,6.029,CST-1368DR,4246,4610,11521,01.216,552
2023-07-19T00:53:11,42.805,6.029,CST-1368DR,4246,4611,11523,01.216,552
2023-07-19T00:56:13,42.805,6.029,CST-1368DR,4246,4611,11524,01.215,552
2023-07-19T00:59:14,42.805,6.029,CST-1368DR,4246,4611,11522,01.216,552
2023-07-19T01:02:16,42.805,6.029,CST-1368DR,4246,4610,11522,01.216,552
2023-07-19T01:05:17,42.805,6.029,CST-1368DR,4246,4609,11519,01.217,552
2023-07-19T01:08:19,42.805,6.029,CST-1368DR,4245,4611,11525,01.215,552
2023-07-19T01:11:21,42.805,6.029,CST-1368DR,4246,4610,11521,01.216,552
2023-07-19T01:14:22,42.805,6.029,CST-1368DR,4246,4610,11520,01.217,552
2023-07-19T01:17:24,42.805,6.029,CST-1368DR,4246,4623,11552,01.206,552
2023-07-19T01:20:25,42.805,6.029,CST-1368DR,4246,4623,11554,01.205,552
2023-07-19T01:23:27,42.805,6.029,CST-1368DR,4246,4623,11553,01.205,552
2023-07-19T01:26:29,42.805,6.029,CST-1368DR,4246,4622,11552,01.206,552
2023-07-19T01:29:30,42.805,6.029,CST-1368DR,4246,4623,11554,01.205,552
2023-07-19T01:32:32,42.805,6.029,CST-1368DR,4246,4624,11555,01.205,552
2023-07-19T01:35:33,42.805,6.029,CST-1368DR,4246,4622,11551,01.206,552
2023-07-19T01:38:35,42.805,6.029,CST-1368DR,4246,4623,11552,01.206,552
2023-07-19T01:41:36,42.805,6.029,CST-1368DR,4246,4623,11553,01.205,552
2023-07-19T01:44:38,42.805,6.029,CST-1368DR,4246,4624,11555,01.205,552
2023-07-19T01:47:40,42.805,6.029,CST-1368DR,4246,4622,11550,01.206,552
2023-07-19T01:50:41,42.805,6.029,CST-1368DR,4246,4623,11552,01.206,552
2023-07-19T01:53:43,42.805,6.029,CST-1368DR,4246,4622,11551,01.206,552
2023-07-19T01:56:44,42.805,6.029,CST-1368DR,4246,4623,11553,01.205,552
2023-07-19T01:59:46,42.805,6.029,CST-1368DR,4246,4624,11555,01.205,552
2023-07-19T02:02:47,42.805,6.029,CST-1368DR,4246,4623,11552,01.206,552
2023-07-19T02:05:49,42.805,6.029,CST-1368DR,4246,4624,11555,01.205,552
2023-07-19T02:08:51,42.805,6.029,CST-1368DR,4246,4623,11552,01.206,552
2023-07-19T02:11:52,42.805,6.029,CST-1368DR,4246,4623,11552,01.206,552
2023-07-19T02:14:54,42.805,6.029,CST-1368DR,4245,4624,11558,01.204,552
2023-07-19T02:17:55,42.805,6.029,CST-1368DR,4246,4623,11553,01.205,552
2023-07-19T02:20:57,42.805,6.029,CST-1368DR,4245,4621,11550,01.206,552
2023-07-19T02:23:59,42.805,6.029,CST-1368DR,4245,4622,11553,01.205,552
2023-07-19T02:27:00,42.805,6.029,CST-1368DR,4246,4621,11549,01.207,552
2023-07-19T02:30:02,42.805,6.029,CST-1368DR,4245,4621,11551,01.206,552
2023-07-19T02:33:03,42.805,6.029,CST-1368DR,4246,4622,11550,01.206,552
2023-07-19T02:36:05,42.805,6.029,CST-1368DR,4245,4621,11552,01.206,552
2023-07-19T02:39:06,42.805,6.029,CST-1368DR,4245,4622,11552,01.206,552
2023-07-19T02:42:08,42.805,6.029,CST-1368DR,4245,4621,11551,01.206,552
2023-07-19T02:45:10,42.805,6.029,CST-1368DR,4245,4622,11552,01.206,552
2023-07-19T02:48:11,42.805,6.029,CST-1368DR,4246,4621,11549,01.207,552
2023-07-19T02:51:13,42.805,6.029,CST-1368DR,4246,4621,11548,01.207,552
2023-07-19T02:54:14,42.805,6.029,CST-1368DR,4246,4620,11547,01.207,552
2023-07-19T02:57:16,42.805,6.029,CST-1368DR,4245,4620,11549,01.207,552
2023-07-19T03:00:17,42.805,6.029,CST-1368DR,4246,4621,11549,01.207,552
2023-07-19T03:03:19,42.805,6.029,CST-1368DR,4246,4621,11548,01.207,552
2023-07-19T03:06:21,42.805,6.029,CST-1368DR,4245,4621,11552,01.206,552
2023-07-19T03:09:22,42.805,6.029,CST-1368DR,4246,4622,11550,01.206,552
2023-07-19T03:12:24,42.805,6.029,CST-1368DR,4246,4621,11547,01.207,552
2023-07-19T03:15:25,42.805,6.029,CST-1368DR,4246,4621,11549,01.207,552
2023-07-19T03:18:27,42.805,6.029,CST-1368DR,4246,4621,11549,01.207,552
2023-07-19T03:21:29,42.805,6.029,CST-1368DR,4246,4621,11548,01.207,552
2023-07-19T03:24:30,42.805,6.029,CST-1368DR,4246,4621,11548,01.207,552
2023-07-19T03:27:32,42.805,6.029,CST-1368DR,4246,4619,11543,01.209,552
2023-07-19T03:30:33,42.805,6.029,CST-1368DR,4246,4622,11550,01.206,552
2023-07-19T03:33:35,42.805,6.029,CST-1368DR,4246,4622,11550,01.206,552
2023-07-19T03:36:36,42.805,6.029,CST-1368DR,4245,4621,11550,01.206,552
2023-07-19T03:39:38,42.805,6.029,CST-1368DR,4245,4621,11552,01.206,552
2023-07-19T03:42:40,42.805,6.029,CST-1368DR,4245,4621,11550,01.206,552
2023-07-19T03:45:41,42.805,6.029,CST-1368DR,4245,4622,11552,01.206,552
2023-07-19T03:48:43,42.805,6.029,CST-1368DR,4245,4622,11552,01.206,552
2023-07-19T03:51:44,42.805,6.029,CST-1368DR,4245,4621,11552,01.206,552
2023-07-19T03:54:46,42.805,6.029,CST-1368DR,4245,4622,11552,01.206,552
2023-07-19T03:57:47,42.805,6.029,CST-1368DR,4246,4622,11550,01.206,552
2023-07-19T04:00:49,42.805,6.029,CST-1368DR,4245,4621,11550,01.206,552
2023-07-19T04:03:51,42.805,6.029,CST-1368DR,4245,4621,11551,01.206,552
2023-07-19T04:06:52,42.805,6.029,CST-1368DR,4245,4621,11550,01.206,552
2023-07-19T04:09:54,42.805,6.029,CST-1368DR,4245,4620,11549,01.207,552
2023-07-19T04:12:55,42.805,6.029,CST-1368DR,4245,4621,11550,01.206,552
2023-07-19T04:15:57,42.805,6.029,CST-1368DR,4245,4622,11552,01.206,552
2023-07-19T04:18:58,42.805,6.029,CST-1368DR,4245,4621,11552,01.206,552
2023-07-19T04:22:00,42.805,6.029,CST-1368DR,4245,4621,11550,01.206,552
2023-07-19T04:25:02,42.805,6.029,CST-1368DR,4245,4622,11552,01.206,552
2023-07-19T04:28:03,42.805,6.029,CST-1368DR,4245,4621,11552,01.206,552
2023-07-19T04:31:05,42.805,6.029,CST-1368DR,4245,4620,11547,01.207,552
2023-07-19T04:34:06,42.805,6.029,CST-1368DR,4245,4622,11552,01.206,552
2023-07-19T04:37:08,42.805,6.029,CST-1368DR,4245,4622,11554,01.205,552
2023-07-19T04:40:10,42.805,6.029,CST-1368DR,4245,4622,11552,01.206,552
2023-07-19T04:43:11,42.805,6.029,CST-1368DR,4245,4621,11552,01.206,552
2023-07-19T04:46:13,42.805,6.029,CST-1368DR,4245,4622,11553,01.205,552
2023-07-19T04:49:14,42.805,6.029,CST-1368DR,4245,4622,11552,01.206,552
2023-07-19T04:52:16,42.805,6.029,CST-1368DR,4245,4621,11552,01.206,552
2023-07-19T04:55:17,42.805,6.029,CST-1368DR,4245,4622,11552,01.206,552
2023-07-19T04:58:19,42.805,6.029,CST-1368DR,4245,4623,11555,01.205,552
2023-07-19T05:01:21,42.805,6.029,CST-1368DR,4245,4621,11550,01.206,552
2023-07-19T05:04:22,42.805,6.029,CST-1368DR,4245,4622,11554,01.205,552
2023-07-19T05:07:24,42.805,6.029,CST-1368DR,4245,4622,11552,01.206,552
2023-07-19T05:10:25,42.805,6.029,CST-1368DR,4245,4622,11552,01.206,552
2023-07-19T05:13:27,42.805,6.029,CST-1368DR,4245,4622,11554,01.205,552
2023-07-19T05:16:28,42.805,6.029,CST-1368DR,4245,4623,11555,01.205,552
2023-07-19T05:19:30,42.805,6.029,CST-1368DR,4245,4622,11554,01.205,552
2023-07-19T05:22:32,42.805,6.029,CST-1368DR,4245,4621,11552,01.206,552
2023-07-19T05:25:33,42.805,6.029,CST-1368DR,4245,4622,11553,01.205,552
2023-07-19T05:28:35,42.805,6.029,CST-1368DR,4245,4622,11554,01.205,552
2023-07-19T05:31:36,42.805,6.029,CST-1368DR,4245,4623,11555,01.205,552
2023-07-19T05:34:38,42.805,6.029,CST-1368DR,4245,4622,11552,01.206,552
2023-07-19T05:37:40,42.805,6.029,CST-1368DR,4245,4622,11554,01.205,552
2023-07-19T05:40:41,42.805,6.029,CST-1368DR,4245,4622,11554,01.205,552
2023-07-19T05:43:43,42.805,6.029,CST-1368DR,4245,4622,11553,01.205,552
2023-07-19T05:46:44,42.805,6.029,CST-1368DR,4245,4622,11554,01.205,552
2023-07-19T05:49:46,42.805,6.029,CST-1368DR,4245,4623,11555,01.205,552
2023-07-19T05:52:47,42.805,6.029,CST-1368DR,4245,4621,11551,01.206,552
2023-07-19T05:55:49,42.805,6.029,CST-1368DR,4245,4623,11555,01.205,552
2023-07-19T05:58:51,42.805,6.029,CST-1368DR,4245,4622,11552,01.206,552
2023-07-19T06:01:52,42.805,6.029,CST-1368DR,4245,4622,11554,01.205,552
2023-07-19T06:04:54,42.805,6.029,CST-1368DR,4245,4621,11551,01.206,552
2023-07-19T06:07:55,42.805,6.029,CST-1368DR,4245,4622,11553,01.205,552
2023-07-19T06:10:57,42.805,6.029,CST-1368DR,4245,4621,11551,01.206,552
2023-07-19T06:13:58,42.805,6.029,CST-1368DR,4245,4622,11552,01.206,552
2023-07-19T06:17:00,42.805,6.029,CST-1368DR,4245,4622,11552,01.206,552
2023-07-19T06:20:02,42.805,6.029,CST-1368DR,4245,4621,11552,01.206,552
2023-07-19T06:23:03,42.805,6.029,CST-1368DR,4245,4621,11552,01.206,552
2023-07-19T06:26:05,42.805,6.029,CST-1368DR,4245,4622,11554,01.205,552
2023-07-19T06:29:06,42.805,6.029,CST-1368DR,4245,4622,11552,01.206,552
2023-07-19T06:32:10,42.805,6.029,CST-1368DR,4245,4622,11554,01.205,552
2023-07-19T06:35:12,42.805,6.029,CST-1368DR,4245,4621,11550,01.206,552
2023-07-19T06:38:14,42.805,6.029,CST-1368DR,4245,4622,11552,01.206,552
2023-07-19T06:41:15,42.805,6.029,CST-1368DR,4245,4622,11552,01.206,552
2023-07-19T06:44:17,42.805,6.029,CST-1368DR,4245,4622,11552,01.206,552
2023-07-19T06:47:18,42.805,6.029,CST-1368DR,4245,4621,11550,01.206,552
2023-07-19T06:50:20,42.805,6.029,CST-1368DR,4245,4622,11553,01.205,552
2023-07-19T06:53:22,42.805,6.029,CST-1368DR,4245,4622,11553,01.205,552
2023-07-19T06:56:23,42.805,6.029,CST-1368DR,4245,4622,11553,01.205,552
2023-07-19T06:59:25,42.805,6.029,CST-1368DR,4245,4622,11552,01.206,552
2023-07-19T07:02:26,42.805,6.029,CST-1368DR,4245,4621,11551,01.206,552
2023-07-19T07:05:28,42.805,6.029,CST-1368DR,4245,4620,11549,01.207,552
2023-07-19T07:08:29,42.805,6.029,CST-1368DR,4245,4621,11551,01.206,552
2023-07-19T07:11:31,42.805,6.029,CST-1368DR,4245,4622,11552,01.206,552
2023-07-19T07:14:33,42.805,6.029,CST-1368DR,4245,4621,11550,01.206,552
2023-07-19T07:17:34,42.805,6.029,CST-1368DR,4245,4621,11550,01.206,553
2023-07-19T07:20:36,42.805,6.029,CST-1368DR,4245,4621,11550,01.206,552
2023-07-19T07:23:37,42.805,6.029,CST-1368DR,4245,4622,11554,01.205,552
2023-07-19T07:26:39,42.805,6.029,CST-1368DR,4245,4621,11551,01.206,552
2023-07-19T07:29:40,42.805,6.029,CST-1368DR,4245,4620,11549,01.207,552
2023-07-19T07:32:42,42.805,6.029,CST-1368DR,4245,4621,11550,01.206,552
2023-07-19T07:35:44,42.805,6.029,CST-1368DR,4245,4621,11552,01.206,552
2023-07-19T07:38:45,42.805,6.029,CST-1368DR,4245,4621,11550,01.206,552
2023-07-19T07:41:47,42.805,6.029,CST-1368DR,4245,4621,11550,01.206,552
2023-07-19T07:44:48,42.805,6.029,CST-1368DR,4245,4621,11550,01.206,552
2023-07-19T07:47:50,42.805,6.029,CST-1368DR,4245,4621,11552,01.206,552
2023-07-19T07:50:52,42.805,6.029,CST-1368DR,4245,4620,11549,01.207,552
2023-07-19T07:53:53,42.805,6.029,CST-1368DR,4245,4620,11547,01.207,552
2023-07-19T07:56:55,42.805,6.029,CST-1368DR,4245,4621,11550,01.206,552
2023-07-19T07:59:56,42.805,6.029,CST-1368DR,4245,4620,11549,01.207,552
2023-07-19T08:02:58,42.805,6.029,CST-1368DR,4245,4621,11550,01.206,552
2023-07-19T08:05:59,42.805,6.029,CST-1368DR,4245,4619,11547,01.207,552
2023-07-19T08:09:01,42.805,6.029,CST-1368DR,4245,4620,11549,01.207,552
2023-07-19T08:12:03,42.805,6.029,CST-1368DR,4245,4619,11546,01.208,552
2023-07-19T08:15:04,42.805,6.029,CST-1368DR,4245,4620,11549,01.207,552
2023-07-19T08:18:06,42.805,6.029,CST-1368DR,4245,4620,11549,01.207,552
2023-07-19T08:21:07,42.805,6.029,CST-1368DR,4245,4620,11547,01.207,552
2023-07-19T08:24:09,42.805,6.029,CST-1368DR,4245,4620,11549,01.207,552
2023-07-19T08:27:10,42.805,6.029,CST-1368DR,4245,4619,11545,01.208,552
2023-07-19T08:30:13,42.805,6.029,CST-1368DR,4245,4619,11545,01.208,552
2023-07-19T08:33:15,42.805,6.029,CST-1368DR,4245,4619,11546,01.208,552
2023-07-19T08:36:16,42.805,6.029,CST-1368DR,4245,4615,11535,01.212,552
2023-07-19T08:39:18,42.805,6.029,CST-1368DR,4245,4615,11535,01.212,552
2023-07-19T08:42:19,42.805,6.029,CST-1368DR,4245,4615,11535,01.212,552
2023-07-19T08:45:21,42.805,6.029,CST-1368DR,4245,4612,11529,01.214,552
2023-07-19T08:48:23,42.805,6.029,CST-1368DR,4245,4612,11529,01.214,552
2023-07-19T08:51:24,42.805,6.029,CST-1368DR,4245,4611,11526,01.215,552
2023-07-19T08:54:26,42.805,6.029,CST-1368DR,4245,4611,11526,01.215,552
2023-07-19T08:57:27,42.805,6.029,CST-1368DR,4245,4611,11525,01.215,552
2023-07-19T09:00:29,42.805,6.029,CST-1368DR,4245,4610,11523,01.216,552
2023-07-19T09:03:30,42.805,6.029,CST-1368DR,4245,4610,11524,01.215,552
2023-07-19T09:06:32,42.805,6.029,CST-1368DR,4245,4610,11524,01.215,552
2023-07-19T09:09:34,42.805,6.029,CST-1368DR,4245,4609,11521,01.216,552
2023-07-19T09:12:35,42.805,6.029,CST-1368DR,4245,4611,11527,01.214,552
2023-07-19T09:15:37,42.805,6.029,CST-1368DR,4245,4610,11524,01.215,552
2023-07-19T09:18:38,42.805,6.029,CST-1368DR,4245,4611,11525,01.215,552
2023-07-19T09:21:40,42.805,6.029,CST-1368DR,4245,4611,11525,01.215,552
2023-07-19T09:24:41,42.805,6.029,CST-1368DR,4245,4610,11523,01.216,552
2023-07-19T09:27:43,42.805,6.029,CST-1368DR,4245,4609,11521,01.216,552
2023-07-19T09:30:45,42.805,6.029,CST-1368DR,4245,4610,11524,01.215,552
2023-07-19T09:33:46,42.805,6.029,CST-1368DR,4245,4610,11524,01.215,552
2023-07-19T09:36:48,42.805,6.029,CST-1368DR,4245,4610,11523,01.216,552
2023-07-19T09:39:49,42.805,6.029,CST-1368DR,4245,4609,11520,01.217,552
2023-07-19T09:42:51,42.805,6.029,CST-1368DR,4245,4609,11521,01.216,552
2023-07-19T09:45:53,42.805,6.029,CST-1368DR,4245,4608,11519,01.217,552
2023-07-19T09:48:54,42.805,6.029,CST-1368DR,4245,4608,11518,01.218,552
2023-07-19T09:51:56,42.805,6.029,CST-1368DR,4245,4609,11520,01.217,552
2023-07-19T09:54:57,42.805,6.029,CST-1368DR,4245,4608,11517,01.218,552
2023-07-19T09:57:59,42.805,6.029,CST-1368DR,4245,4607,11515,01.219,552
2023-07-19T10:01:00,42.805,6.029,CST-1368DR,4245,4607,11515,01.219,552
2023-07-19T10:04:02,42.805,6.029,CST-1368DR,4245,4608,11519,01.217,552
2023-07-19T10:07:04,42.805,6.029,CST-1368DR,4245,4607,11516,01.218,552
2023-07-19T10:10:05,42.805,6.029,CST-1368DR,4245,4608,11517,01.218,552
2023-07-19T10:13:07,42.805,6.029,CST-1368DR,4245,4608,11517,01.218,552
2023-07-19T10:16:08,42.805,6.029,CST-1368DR,4245,4607,11516,01.218,552
2023-07-19T10:19:10,42.805,6.029,CST-1368DR,4245,4608,11519,01.217,552
2023-07-19T10:22:11,42.805,6.029,CST-1368DR,4245,4607,11515,01.219,552
2023-07-19T10:25:13,42.805,6.029,CST-1368DR,4245,4604,11509,01.221,552
2023-07-19T10:28:15,42.805,6.029,CST-1368DR,4245,4607,11515,01.219,552
2023-07-19T10:31:16,42.805,6.029,CST-1368DR,4245,4607,11517,01.218,552
2023-07-19T10:34:18,42.805,6.029,CST-1368DR,4245,4607,11516,01.218,552
2023-07-19T10:37:19,42.805,6.029,CST-1368DR,4245,4607,11517,01.218,552
2023-07-19T10:40:21,42.805,6.029,CST-1368DR,4245,4607,11515,01.219,552
2023-07-19T10:43:23,42.805,6.029,CST-1368DR,4245,4608,11517,01.218,552
2023-07-19T10:46:24,42.805,6.029,CST-1368DR,4245,4607,11516,01.218,552
2023-07-19T10:49:26,42.805,6.029,CST-1368DR,4245,4608,11517,01.218,552
2023-07-19T10:52:27,42.805,6.029,CST-1368DR,4245,4607,11516,01.218,552
2023-07-19T10:55:29,42.805,6.029,CST-1368DR,4245,4607,11516,01.218,552
2023-07-19T10:58:30,42.805,6.029,CST-1368DR,4245,4606,11513,01.219,552
2023-07-19T11:01:32,42.805,6.029,CST-1368DR,4245,4608,11518,01.218,552
2023-07-19T11:04:34,42.805,6.029,CST-1368DR,4245,4607,11517,01.218,552
2023-07-19T11:07:35,42.805,6.029,CST-1368DR,4245,4607,11516,01.218,552
2023-07-19T11:10:37,42.805,6.029,CST-1368DR,4245,4607,11515,01.219,552
2023-07-19T11:13:38,42.805,6.029,CST-1368DR,4245,4607,11515,01.219,552
2023-07-19T11:16:40,42.805,6.029,CST-1368DR,4245,4607,11515,01.219,552
2023-07-19T11:19:41,42.805,6.029,CST-1368DR,4245,4607,11516,01.218,552
2023-07-19T11:22:43,42.805,6.029,CST-1368DR,4245,4607,11516,01.218,552
2023-07-19T11:25:45,42.805,6.029,CST-1368DR,4245,4608,11518,01.218,552
2023-07-19T11:28:46,42.805,6.029,CST-1368DR,4245,4607,11516,01.218,552
2023-07-19T11:31:48,42.805,6.029,CST-1368DR,4245,4607,11515,01.219,552
2023-07-19T11:34:49,42.805,6.029,CST-1368DR,4245,4608,11517,01.218,552
2023-07-19T11:37:51,42.805,6.029,CST-1368DR,4245,4607,11517,01.218,552
2023-07-19T11:40:53,42.805,6.029,CST-1368DR,4245,4607,11515,01.219,552
2023-07-19T11:43:54,42.805,6.029,CST-1368DR,4245,4612,11527,01.214,552
2023-07-19T11:46:56,42.805,6.029,CST-1368DR,4245,4609,11520,01.217,552
2023-07-19T11:49:57,42.805,6.029,CST-1368DR,4245,4608,11519,01.217,552
2023-07-19T11:52:59,42.805,6.029,CST-1368DR,4245,4608,11517,01.218,552
2023-07-19T11:56:00,42.805,6.029,CST-1368DR,4245,4606,11512,01.220,552
2023-07-19T11:59:02,42.805,6.029,CST-1368DR,4245,4607,11515,01.219,552
2023-07-19T12:02:04,42.805,6.029,CST-1368DR,4245,4606,11513,01.219,552
2023-07-19T12:05:05,42.805,6.029,CST-1368DR,4245,4606,11514,01.219,552
2023-07-19T12:08:07,42.805,6.029,CST-1368DR,4245,4607,11517,01.218,552
2023-07-19T12:11:08,42.805,6.029,CST-1368DR,4245,4607,11515,01.219,552
2023-07-19T12:14:10,42.805,6.029,CST-1368DR,4245,4606,11513,01.219,552
2023-07-19T12:17:12,42.805,6.029,CST-1368DR,4245,4607,11515,01.219,552
2023-07-19T12:20:13,42.805,6.029,CST-1368DR,4245,4605,11511,01.220,552
2023-07-19T12:23:15,42.805,6.029,CST-1368DR,4245,4607,11515,01.219,552
2023-07-19T12:26:16,42.805,6.029,CST-1368DR,4245,4607,11516,01.218,552
2023-07-19T12:29:18,42.805,6.029,CST-1368DR,4245,4607,11516,01.218,552
2023-07-19T12:32:19,42.805,6.029,CST-1368DR,4245,4606,11514,01.219,552
2023-07-19T12:35:21,42.805,6.029,CST-1368DR,4245,4606,11513,01.219,552
2023-07-19T12:38:23,42.805,6.029,CST-1368DR,4245,4607,11515,01.219,552
2023-07-19T12:41:24,42.805,6.029,CST-1368DR,4245,4606,11514,01.219,552
2023-07-19T12:44:26,42.805,6.029,CST-1368DR,4245,4607,11515,01.219,552
2023-07-19T12:47:27,42.805,6.029,CST-1368DR,4245,4607,11516,01.218,552
2023-07-19T12:50:29,42.805,6.029,CST-1368DR,4245,4615,11536,01.211,552
2023-07-19T12:53:30,42.805,6.029,CST-1368DR,4245,4606,11514,01.219,552
2023-07-19T12:56:32,42.805,6.029,CST-1368DR,4245,4607,11517,01.218,552
2023-07-19T12:59:34,42.805,6.029,CST-1368DR,4245,4606,11514,01.219,552
2023-07-19T13:02:35,42.805,6.029,CST-1368DR,4245,4607,11515,01.219,552
2023-07-19T13:05:37,42.805,6.029,CST-1368DR,4245,4607,11515,01.219,552
2023-07-19T13:08:38,42.805,6.029,CST-1368DR,4245,4605,11510,01.220,552
2023-07-19T13:11:40,42.805,6.029,CST-1368DR,4245,4606,11513,01.219,552
2023-07-19T13:14:42,42.805,6.029,CST-1368DR,4245,4607,11517,01.218,552
2023-07-19T13:17:43,42.805,6.029,CST-1368DR,4245,4607,11515,01.219,552
2023-07-19T13:20:45,42.805,6.029,CST-1368DR,4245,4606,11513,01.219,552
2023-07-19T13:23:46,42.805,6.029,CST-1368DR,4245,4607,11516,01.218,552
2023-07-19T13:26:48,42.805,6.029,CST-1368DR,4245,4608,11517,01.218,552
2023-07-19T13:29:49,42.805,6.029,CST-1368DR,4245,4607,11516,01.218,552
2023-07-19T13:32:51,42.805,6.029,CST-1368DR,4245,4607,11515,01.219,552
2023-07-19T13:35:53,42.805,6.029,CST-1368DR,4245,4604,11507,01.221,552
2023-07-19T13:38:54,42.805,6.029,CST-1368DR,4245,4607,11516,01.218,552
2023-07-19T13:41:56,42.805,6.029,CST-1368DR,4245,4607,11515,01.219,552
2023-07-19T13:44:57,42.805,6.029,CST-1368DR,4245,4606,11512,01.220,552
2023-07-19T13:47:59,42.805,6.029,CST-1368DR,4245,4607,11515,01.219,552
2023-07-19T13:51:00,42.805,6.029,CST-1368DR,4245,4607,11515,01.219,552
2023-07-19T13:54:02,42.805,6.029,CST-1368DR,4245,4607,11515,01.219,552
2023-07-19T13:57:04,42.805,6.029,CST-1368DR,4245,4606,11512,01.220,552
2023-07-19T14:00:05,42.805,6.029,CST-1368DR,4245,4607,11515,01.219,552
2023-07-19T14:03:07,42.805,6.029,CST-1368DR,4245,4606,11512,01.220,552
2023-07-19T14:06:08,42.805,6.029,CST-1368DR,4245,4606,11512,01.220,552
2023-07-19T14:09:10,42.805,6.029,CST-1368DR,4245,4606,11514,01.219,552
2023-07-19T14:12:12,42.805,6.029,CST-1368DR,4245,4606,11513,01.219,552
2023-07-19T14:15:13,42.805,6.029,CST-1368DR,4245,4604,11509,01.221,552
2023-07-19T14:18:15,42.805,6.029,CST-1368DR,4245,4605,11510,01.220,552
2023-07-19T14:21:16,42.805,6.029,CST-1368DR,4245,4605,11511,01.220,552
2023-07-19T14:24:18,42.805,6.029,CST-1368DR,4245,4606,11514,01.219,552
2023-07-19T14:27:19,42.805,6.029,CST-1368DR,4245,4605,11511,01.220,552
2023-07-19T14:30:22,42.805,6.029,CST-1368DR,4245,4603,11507,01.221,552
2023-07-19T14:33:24,42.805,6.029,CST-1368DR,4245,4606,11513,01.219,552
2023-07-19T14:36:26,42.805,6.029,CST-1368DR,4245,4605,11510,01.220,552
2023-07-19T14:39:27,42.805,6.029,CST-1368DR,4245,4605,11510,01.220,552
2023-07-19T14:42:29,42.805,6.029,CST-1368DR,4245,4604,11509,01.221,552
2023-07-19T14:45:30,42.805,6.029,CST-1368DR,4245,4606,11512,01.220,552
2023-07-19T14:48:32,42.805,6.029,CST-1368DR,4245,4605,11512,01.220,552
2023-07-19T14:51:33,42.805,6.029,CST-1368DR,4245,4605,11511,01.220,552
2023-07-19T14:54:35,42.805,6.029,CST-1368DR,4245,4605,11512,01.220,552
2023-07-19T14:57:37,42.805,6.029,CST-1368DR,4244,4607,11517,01.218,552
2023-07-19T15:00:38,42.805,6.029,CST-1368DR,4245,4607,11515,01.219,552
2023-07-19T15:03:40,42.805,6.029,CST-1368DR,4245,4605,11512,01.220,552
2023-07-19T15:06:41,42.805,6.029,CST-1368DR,4245,4604,11509,01.221,552
2023-07-19T15:09:43,42.805,6.029,CST-1368DR,4245,4605,11512,01.220,552
2023-07-19T15:12:44,42.805,6.029,CST-1368DR,4245,4607,11516,01.218,552
2023-07-19T15:15:46,42.805,6.029,CST-1368DR,4245,4607,11517,01.218,552
2023-07-19T15:18:48,42.805,6.029,CST-1368DR,4245,4606,11513,01.219,552
2023-07-19T15:21:49,42.805,6.029,CST-1368DR,4245,4606,11513,01.219,552
2023-07-19T15:24:51,42.805,6.029,CST-1368DR,4245,4608,11517,01.218,552
2023-07-19T15:27:52,42.805,6.029,CST-1368DR,4245,4606,11514,01.219,552
2023-07-19T15:30:54,42.805,6.029,CST-1368DR,4245,4605,11512,01.220,552
2023-07-19T15:33:56,42.805,6.029,CST-1368DR,4245,4606,11513,01.219,552
2023-07-19T15:36:57,42.805,6.029,CST-1368DR,4245,4606,11513,01.219,552
2023-07-19T15:39:59,42.805,6.029,CST-1368DR,4245,4606,11513,01.219,552
2023-07-19T15:43:00,42.805,6.029,CST-1368DR,4244,4605,11514,01.219,552
2023-07-19T15:46:02,42.805,6.029,CST-1368DR,4245,4605,11512,01.220,552
2023-07-19T15:49:03,42.805,6.029,CST-1368DR,4245,4606,11514,01.219,552
2023-07-19T15:52:05,42.805,6.029,CST-1368DR,4244,4606,11515,01.219,552
2023-07-19T15:55:07,42.805,6.029,CST-1368DR,4245,4606,11514,01.219,552
2023-07-19T15:58:08,42.805,6.029,CST-1368DR,4245,4605,11512,01.220,552
2023-07-19T16:01:10,42.805,6.029,CST-1368DR,4245,4606,11513,01.219,552
2023-07-19T16:04:11,42.805,6.029,CST-1368DR,4244,4606,11515,01.219,552
2023-07-19T16:07:13,42.805,6.029,CST-1368DR,4244,4606,11516,01.218,552
2023-07-19T16:10:14,42.805,6.029,CST-1368DR,4244,4607,11519,01.217,552
2023-07-19T16:13:16,42.805,6.029,CST-1368DR,4244,4606,11516,01.218,552
2023-07-19T16:16:18,42.805,6.029,CST-1368DR,4244,4606,11516,01.218,552
2023-07-19T16:19:19,42.805,6.029,CST-1368DR,4244,4607,11517,01.218,552
2023-07-19T16:22:21,42.805,6.029,CST-1368DR,4244,4606,11515,01.219,552
2023-07-19T16:25:22,42.805,6.029,CST-1368DR,4245,4607,11515,01.219,552
2023-07-19T16:28:24,42.805,6.029,CST-1368DR,4244,4606,11516,01.218,552
2023-07-19T16:31:25,42.805,6.029,CST-1368DR,4244,4606,11515,01.219,552
2023-07-19T16:34:27,42.805,6.029,CST-1368DR,4244,4606,11516,01.218,552
2023-07-19T16:37:28,42.805,6.029,CST-1368DR,4244,4605,11514,01.219,552